When you browse on this site, cookies collect data to enhance your experience and personalize the content and advertising you see.
Visit our Privacy Policy to learn more. By continuing to use the site, you agree to this use of cookies and data.

Previsão horária em Linz

Hoje, 10 Julho, Sexta-feira

Tempo Temperatura Precipitação Vento Pressão Humidade
00:00 +19°C° 0 mm 1 m/s 734 mmHg 88%
01:00 +19°C° 0 mm 1 m/s 734 mmHg 89%
02:00 +19°C° 0 mm 1 m/s 734 mmHg 90%
03:00 +18°C° 0 mm 1 m/s 733 mmHg 91%
04:00 +18°C° 0 mm 1 m/s 733 mmHg 91%
05:00 +19°C° 0 mm 1 m/s 733 mmHg 88%
06:00 +21°C° 0 mm 1 m/s 733 mmHg 84%
07:00 +22°C° 0 mm 1 m/s 733 mmHg 80%
08:00 +24°C° 0 mm 1 m/s 733 mmHg 74%
09:00 +27°C° 0 mm 1 m/s 733 mmHg 68%
10:00 +29°C° 0 mm 1 m/s 733 mmHg 61%
11:00 +30°C° 0 mm 1 m/s 732 mmHg 57%
12:00 +31°C° 0 mm 2 m/s 732 mmHg 53%
13:00 +32°C° 0 mm 2 m/s 731 mmHg 49%
14:00 +32°C° 0 mm 2 m/s 731 mmHg 50%
15:00 +32°C° 0 mm 1 m/s 731 mmHg 50%
16:00 +32°C° 0 mm 1 m/s 731 mmHg 51%
17:00 +30°C° 0.5 mm 2 m/s 731 mmHg 61%
18:00 +27°C° 0.5 mm 3 m/s 731 mmHg 71%
19:00 +25°C° 0.5 mm 4 m/s 731 mmHg 81%
20:00 +22°C° 1.4 mm 4 m/s 731 mmHg 86%
21:00 +21°C° 1.4 mm 3 m/s 732 mmHg 90%
22:00 +19°C° 1.4 mm 3 m/s 733 mmHg 95%
23:00 +19°C° 0.8 mm 2 m/s 733 mmHg 96%

Amanhã, 11 Julho, Sábado

Tempo Temperatura Precipitação Vento Pressão Humidade
00:00 +19°C° 0.8 mm 2 m/s 733 mmHg 97%
01:00 +19°C° 0.8 mm 1 m/s 733 mmHg 97%
02:00 +19°C° 1.8 mm 1 m/s 733 mmHg 97%
03:00 +19°C° 1.8 mm 1 m/s 733 mmHg 97%
04:00 +19°C° 1.8 mm 1 m/s 734 mmHg 97%
05:00 +18°C° 1.7 mm 1 m/s 734 mmHg 97%
06:00 +18°C° 1.7 mm 1 m/s 734 mmHg 97%
07:00 +16°C° 1.7 mm 1 m/s 734 mmHg 97%
08:00 +16°C° 2.4 mm 2 m/s 735 mmHg 97%
09:00 +16°C° 2.4 mm 2 m/s 735 mmHg 96%
10:00 +16°C° 2.4 mm 2 m/s 736 mmHg 96%
11:00 +15°C° 2.5 mm 2 m/s 736 mmHg 96%
12:00 +15°C° 2.5 mm 1 m/s 736 mmHg 96%
13:00 +14°C° 2.5 mm 1 m/s 736 mmHg 96%
14:00 +15°C° 0.6 mm 1 m/s 737 mmHg 96%
15:00 +15°C° 0.6 mm 1 m/s 737 mmHg 95%
16:00 +15°C° 0.6 mm 1 m/s 737 mmHg 95%
17:00 +14°C° 0.4 mm 0 m/s 737 mmHg 95%
18:00 +14°C° 0.4 mm 0 m/s 737 mmHg 96%
19:00 +14°C° 0.4 mm 0 m/s 738 mmHg 96%
20:00 +14°C° 0 mm 0 m/s 738 mmHg 96%
21:00 +13°C° 0 mm 0 m/s 738 mmHg 96%
22:00 +13°C° 0 mm 0 m/s 738 mmHg 95%
23:00 +12°C° 0 mm 0 m/s 738 mmHg 95%

Depois de amanhã, 12 Julho, Domingo

Tempo Temperatura Precipitação Vento Pressão Humidade
00:00 +12°C° 0 mm 0 m/s 738 mmHg 95%
01:00 +12°C° 0 mm 0 m/s 738 mmHg 95%
02:00 +11°C° 0 mm 0 m/s 738 mmHg 94%
03:00 +11°C° 0 mm 0 m/s 738 mmHg 94%
04:00 +10°C° 0 mm 0 m/s 738 mmHg 94%
05:00 +11°C° 0 mm 0 m/s 738 mmHg 92%
06:00 +13°C° 0 mm 0 m/s 739 mmHg 89%
07:00 +14°C° 0 mm 0 m/s 739 mmHg 87%
08:00 +16°C° 0 mm 1 m/s 739 mmHg 77%
09:00 +19°C° 0 mm 1 m/s 739 mmHg 67%
10:00 +21°C° 0 mm 1 m/s 739 mmHg 57%
11:00 +21°C° 0 mm 1 m/s 739 mmHg 55%
12:00 +22°C° 0 mm 1 m/s 739 mmHg 52%
13:00 +23°C° 0 mm 1 m/s 739 mmHg 49%
14:00 +23°C° 0 mm 1 m/s 739 mmHg 50%
15:00 +23°C° 0 mm 1 m/s 739 mmHg 50%
16:00 +23°C° 0 mm 1 m/s 739 mmHg 50%
17:00 +22°C° 0 mm 1 m/s 739 mmHg 57%
18:00 +20°C° 0 mm 1 m/s 739 mmHg 63%
19:00 +17°C° 0 mm 0 m/s 739 mmHg 70%
20:00 +18°C° 0 mm 1 m/s 739 mmHg 73%
21:00 +15°C° 0 mm 1 m/s 739 mmHg 76%
22:00 +13°C° 0 mm 1 m/s 739 mmHg 79%
23:00 +13°C° 0 mm 1 m/s 739 mmHg 82%

13 Julho, Segunda-feira

Tempo Temperatura Precipitação Vento Pressão Humidade
00:00 +12°C° 0 mm 1 m/s 739 mmHg 84%
01:00 +12°C° 0 mm 1 m/s 739 mmHg 86%
02:00 +12°C° 0 mm 1 m/s 739 mmHg 87%
03:00 +11°C° 0 mm 1 m/s 739 mmHg 88%
04:00 +11°C° 0 mm 1 m/s 739 mmHg 88%
05:00 +12°C° 0 mm 1 m/s 739 mmHg 84%
06:00 +14°C° 0 mm 1 m/s 739 mmHg 80%
07:00 +15°C° 0 mm 1 m/s 739 mmHg 76%
08:00 +17°C° 0 mm 2 m/s 739 mmHg 71%
09:00 +19°C° 0 mm 2 m/s 739 mmHg 66%
10:00 +20°C° 0 mm 2 m/s 738 mmHg 61%
11:00 +21°C° 0 mm 3 m/s 738 mmHg 58%
12:00 +22°C° 0 mm 3 m/s 738 mmHg 55%
13:00 +24°C° 0 mm 3 m/s 737 mmHg 53%
14:00 +24°C° 0 mm 3 m/s 737 mmHg 54%
15:00 +24°C° 0 mm 3 m/s 737 mmHg 54%
16:00 +24°C° 0 mm 3 m/s 736 mmHg 55%
17:00 +21°C° 0 mm 3 m/s 736 mmHg 62%
18:00 +20°C° 0 mm 2 m/s 736 mmHg 69%
19:00 +18°C° 0 mm 2 m/s 736 mmHg 76%
20:00 +17°C° 0 mm 2 m/s 736 mmHg 80%
21:00 +15°C° 0 mm 2 m/s 736 mmHg 83%
22:00 +14°C° 0 mm 2 m/s 737 mmHg 87%
23:00 +13°C° 0 mm 2 m/s 736 mmHg 88%

14 Julho, Terça-feira

Tempo Temperatura Precipitação Vento Pressão Humidade
00:00 +13°C° 0 mm 1 m/s 736 mmHg 89%
01:00 +12°C° 0 mm 1 m/s 736 mmHg 90%
02:00 +12°C° 0 mm 1 m/s 736 mmHg 90%
03:00 +11°C° 0 mm 1 m/s 736 mmHg 91%
04:00 +11°C° 0 mm 1 m/s 736 mmHg 92%
05:00 +12°C° 0 mm 1 m/s 736 mmHg 87%
06:00 +14°C° 0 mm 1 m/s 736 mmHg 83%
07:00 +15°C° 0 mm 1 m/s 736 mmHg 79%
08:00 +18°C° 0 mm 1 m/s 735 mmHg 75%
09:00 +18°C° 0 mm 2 m/s 735 mmHg 71%
10:00 +20°C° 0 mm 2 m/s 735 mmHg 67%
11:00 +21°C° 0 mm 2 m/s 735 mmHg 63%
12:00 +23°C° 0 mm 2 m/s 735 mmHg 60%
13:00 +24°C° 0 mm 2 m/s 734 mmHg 56%
14:00 +24°C° 0 mm 2 m/s 734 mmHg 57%
15:00 +24°C° 0 mm 2 m/s 734 mmHg 58%
16:00 +24°C° 0 mm 2 m/s 733 mmHg 59%
17:00 +23°C° 0 mm 2 m/s 733 mmHg 66%
18:00 +20°C° 0 mm 2 m/s 733 mmHg 73%
19:00 +20°C° 0 mm 1 m/s 733 mmHg 81%
20:00 +19°C° 0 mm 1 m/s 733 mmHg 84%
21:00 +16°C° 0 mm 1 m/s 734 mmHg 86%
22:00 +15°C° 0 mm 1 m/s 734 mmHg 89%
23:00 +14°C° 0 mm 1 m/s 734 mmHg 89%

15 Julho, Quarta-feira

Tempo Temperatura Precipitação Vento Pressão Humidade
00:00 +13°C° 0 mm 0 m/s 734 mmHg 89%
01:00 +13°C° 0 mm 0 m/s 734 mmHg 89%
02:00 +13°C° 0 mm 0 m/s 733 mmHg 89%
03:00 +13°C° 0 mm 0 m/s 733 mmHg 90%
04:00 +13°C° 0 mm 0 m/s 733 mmHg 90%
05:00 +13°C° 0.1 mm 0 m/s 733 mmHg 89%
06:00 +14°C° 0.1 mm 0 m/s 734 mmHg 88%
07:00 +15°C° 0.1 mm 0 m/s 734 mmHg 87%
08:00 +19°C° 0.2 mm 1 m/s 734 mmHg 84%
09:00 +20°C° 0.2 mm 1 m/s 734 mmHg 81%
10:00 +21°C° 0.2 mm 1 m/s 734 mmHg 78%
11:00 +22°C° 0.2 mm 1 m/s 734 mmHg 71%
12:00 +24°C° 0.2 mm 1 m/s 734 mmHg 64%
13:00 +25°C° 0.2 mm 1 m/s 733 mmHg 57%
14:00 +25°C° 0.2 mm 1 m/s 733 mmHg 58%
15:00 +25°C° 0.2 mm 1 m/s 733 mmHg 59%
16:00 +25°C° 0.2 mm 1 m/s 733 mmHg 59%
17:00 +24°C° 0.4 mm 1 m/s 733 mmHg 68%
18:00 +22°C° 0.4 mm 1 m/s 733 mmHg 77%
19:00 +20°C° 0.4 mm 2 m/s 733 mmHg 86%
20:00 +19°C° 0.2 mm 2 m/s 734 mmHg 87%
21:00 +18°C° 0.2 mm 2 m/s 734 mmHg 89%
22:00 +17°C° 0.2 mm 2 m/s 734 mmHg 90%
23:00 +17°C° 0 mm 2 m/s 734 mmHg 91%
Mostrar mais